Regional Weather Roundup
Issued by NWS

Home | Current Version | Previous Version | Text Only | Print | Product List | Glossary On
Versions: 1 2 3 4 5 6 7 8 9 10 11 12 13 14 15 16 17 18 19 20 21 22 23 24 25 26 27 28 29 30 31 32 33 34 35 36 37 38 39 40 41 42 43 44 45 46 47 48 49 50
000
ASUS46 KPQR 231210
RWROR

OREGON REGIONAL WEATHER ROUNDUP
NATIONAL WEATHER SERVICE PORTLAND OR
500 AM PDT MON APR 23 2018

NOTE: "FAIR" INDICATES FEW OR NO CLOUDS BELOW 12,000 FEET WITH
NO SIGNIFICANT WEATHER AND/OR OBSTRUCTIONS TO VISIBILITY.

ORZ001>013-231300-
NORTHWEST OREGON


CITY           SKY/WX    TMP DP  RH WIND       PRES   REMARKS
ASTORIA        PTCLDY    42  38  85 E7        30.26F
6HR MIN TEMP:  38; 6HR MAX TEMP:  44;

TILLAMOOK      PTCLDY    34  34 100 CALM      30.25S
NEWPORT        CLOUDY    46  36  66 NE9       30.22S
PORTLAND       PTCLDY    45  36  70 W3        30.29S
6HR MIN TEMP:  44; 6HR MAX TEMP:  54;

VANCOUVER WA   CLEAR     39  35  86 CALM      30.29S
6HR MIN TEMP:  38; 6HR MAX TEMP:  52;

SCAPPOOSE      CLEAR     39  35  86 W3        30.29R
6HR MIN TEMP:  38; 6HR MAX TEMP:  53;

HILLSBORO      CLEAR     40  34  79 CALM      30.27S
6HR MIN TEMP:  39; 6HR MAX TEMP:  49;

AURORA         CLEAR     46  36  68 N9        30.26S
6HR MIN TEMP:  45; 6HR MAX TEMP:  54;

MCMINNVILLE    PTCLDY    42  35  76 N8        30.25S
6HR MIN TEMP:  42; 6HR MAX TEMP:  50;

SALEM          PTCLDY    39  32  76 CALM      30.24F
6HR MIN TEMP:  39; 6HR MAX TEMP:  53;

CORVALLIS      MOCLDY    39  36  89 W5        30.23F
EUGENE         MOCLDY    40  35  83 CALM      30.22S
6HR MIN TEMP:  36; 6HR MAX TEMP:  46;

$$

ORZ021-028-231300-
SOUTHWEST OREGON


CITY           SKY/WX    TMP DP  RH WIND       PRES   REMARKS
NORTH BEND     PTCLDY    41  39  93 CALM      30.16S
6HR MIN TEMP:  41; 6HR MAX TEMP:  47;

BROOKINGS      MOCLDY    64  34  32 VRB6      30.01S
ROSEBURG       MOCLDY    41  35  79 CALM      30.18S
6HR MIN TEMP:  40; 6HR MAX TEMP:  53;

SEXTON SUMMIT  MOCLDY    43  27  53 VRB3      30.13S
6HR MIN TEMP:  41; 6HR MAX TEMP:  46;

GRANTS PASS    LGT RAIN  39  34  81 CALM      30.18S
MEDFORD        PTCLDY    44  36  73 SW3       30.16F
6HR MIN TEMP:  42; 6HR MAX TEMP:  54;

$$

ORZ014>016-041-231300-
COLUMBIA GORGE


CITY           SKY/WX    TMP DP  RH WIND       PRES   REMARKS
TROUTDALE      CLEAR     40  38  93 CALM      30.28F
6HR MIN TEMP:  39; 6HR MAX TEMP:  50;

HOOD RIVER     CLEAR     36  32  87 CALM      30.33S
THE DALLES     CLEAR     38  31  76 SE5       30.34R
6HR MIN TEMP:  37; 6HR MAX TEMP:  49;

$$

ORZ029>031-041-044-049-050-061>064-502-503-505>511-231300-
EASTERN OREGON


CITY           SKY/WX    TMP DP  RH WIND       PRES   REMARKS
MADRAS         CLEAR     28  23  80 SE6       30.32S
REDMOND        PTCLDY    27  19  72 SE3       30.29S
6HR MIN TEMP:  26; 6HR MAX TEMP:  38;

BEND           PTCLDY    28  21  74 SW5       30.30S
PRINEVILLE     PTCLDY    23  19  86 S3        30.30S
KLAMATH FALLS  CLEAR     37  25  61 CALM      30.20F
6HR MIN TEMP:  35; 6HR MAX TEMP:  48;

LAKEVIEW       CLEAR     35  25  66 N17       30.22F WCI  25
HERMISTON      CLEAR     33  28  81 CALM      30.32R
6HR MIN TEMP:  31; 6HR MAX TEMP:  44;

PENDLETON      CLEAR     35  27  72 SE8       30.30R
6HR MIN TEMP:  35; 6HR MAX TEMP:  41;

JOHN DAY       CLEAR     30  23  74 E3        30.29R
MEACHAM        CLEAR     22  19  89 CALM      30.28R
6HR MIN TEMP:  22; 6HR MAX TEMP:  29;

LA GRANDE      CLEAR     36  24  62 NW12      30.28R WCI  28
6HR MIN TEMP:  34; 6HR MAX TEMP:  42;

BAKER CITY     CLEAR     36  22  56 NW12      30.24R WCI  28
6HR MIN TEMP:  34; 6HR MAX TEMP:  42;

BURNS          CLEAR     27  18  69 W7        30.25R
6HR MIN TEMP:  27; 6HR MAX TEMP:  37;

ROME             N/A     32  50 100 NE5       30.21R
6HR MIN TEMP:  30; 6HR MAX TEMP:  48;

ONTARIO        CLEAR     45  25  45 NW17      30.22R
6HR MIN TEMP:  45; 6HR MAX TEMP:  49;

$$



USA.gov is the U.S. government's official web portal to all federal, state and local government web resources and services.